User: anonymous
Location: Washington
(38.8950°N, 77.0370°W)
Time: 04:07:01
(UTC-04:00)
Language:

IDEFIX/ARIANE 42P - Orbit

View from above orbital plane
View from above orbital plane
View from above satellite
View from above satellite

Ground track
Ground track

The orbit data is extracted from the following two-line orbital elements,

1 27422U 02021B   14106.19653822  .00000169  00000-0  83088-4 0  4622
2 27422 098.3064 151.6108 0013438 071.2898 334.7226 14.28996087621285
Epoch (UTC): 16 April 2014 04:43:00
Eccentricity: 0.0013438
inclination: 98.3064°
perigee height: 785 km
apogee height: 805 km
right ascension of ascending node: 151.6108°
argument of perigee: 71.2898°
revolutions per day: 14.28996087
mean anomaly at epoch: 334.7226°
orbit number at epoch: 62128

The dashed part of the orbit path shows where the satellite is in the earth's shadow,  

DLR